{"data":{"norad_id":66017,"intl_designator":"2025-232N","name":"STARLINK-35398","alt_names":[],"object_type":"PAYLOAD","status":"ACTIVE","operator":null,"country":"US","launch_date":"2025-10-16","launch_site_code":"AFETR","launch_vehicle":null,"mission":null,"orbit_class":"UNKNOWN","rcs_meters":null,"size_class":null,"mass_kg":null,"dimensions":null,"purposes":["comms"],"wikipedia_slug":null,"has_3d_model":false,"image_url":null,"decayed_at":null,"tle_current":{"epoch":"2026-05-25T04:00:03.998880Z","epoch_age_seconds":67605,"freshness":"FRESH","line1":"1 66017U 25232N   26145.16671295  .00023090  00000+0  69356-3 0  9994","line2":"2 66017  53.1598 108.7363 0001695  93.3180 270.8492 15.34347115  5805","mean_motion":15.34347115,"eccentricity":0.0001695,"inclination_deg":53.1598,"raan_deg":108.7363,"arg_perigee_deg":93.318,"mean_anomaly_deg":270.8492,"bstar":0.00069356,"rev_number":580,"period_min":93.850992772258,"perigee_km":461.70088102251,"apogee_km":464.01997915131,"semimajor_km":6840.9974300869,"source":"CELESTRAK","updated_at":"2026-05-25T13:38:21.015862Z"}}}